EW9240 Weather Reports


Display with metric or nautical units.
time (UTC)temp
F
wind
direction
speed
MPH
gust
MPH
rain 1hr
in
rain 24hr
in
rain mn
in
humidity
%
barometer
mb
20260509200034 69 308 3.0 6.0 0.00 0.00 0.00 59 1016.1
20260509194509 68 295 1.0 6.0 0.00 0.00 0.00 58 1016.2
20260509193052 67 284 1.0 6.0 0.00 0.00 0.00 61 1016.4
20260509191528 67 302 2.0 6.0 0.00 0.00 0.00 63 1016.6
20260509190009 66 288 2.0 6.0 0.00 0.00 0.00 64 1016.8
20260509184558 65 279 2.0 4.0 0.00 0.00 0.00 67 1017.1
20260509183039 65 262 0.0 4.0 0.00 0.00 0.00 66 1017.2
20260509181628 64 349 1.0 5.0 0.00 0.00 0.00 68 1017.4
20260509180040 63 286 0.0 4.0 0.00 0.00 0.00 69 1017.4
20260509174513 62 284 1.0 4.0 0.00 0.00 0.00 69 1017.7
20260509173110 62 267 0.0 3.0 0.00 0.00 0.00 71 1017.8
20260509171542 61 288 2.0 4.0 0.00 0.00 0.00 72 1018.2
20260509170031 60 283 0.0 3.0 0.00 0.00 0.00 73 1018.2
20260509164506 60 300 1.0 4.0 0.00 0.00 0.00 75 1018.5
20260509163056 59 310 0.0 4.0 0.00 0.00 0.00 76 1018.8
20260509161529 59 333 0.0 2.0 0.00 0.00 0.00 75 1019.1
20260509160004 58 312 0.0 4.0 0.00 0.00 0.00 77 1019.0
20260509154553 57 316 0.0 3.0 0.00 0.00 0.00 78 1019.0
20260509153026 57 333 0.0 2.0 0.00 0.00 0.00 78 1019.3
20260509151508 56 293 0.0 1.0 0.00 0.00 0.00 78 1019.5
20260509144535 57 127 0.0 1.0 0.00 0.00 0.00 74 1019.5
20260509143029 55 127 0.0 1.0 0.00 0.00 0.00 78 1019.5
20260509141608 53 240 0.0 0.0 0.00 0.00 0.00 81 1019.4
20260509140036 51 239 0.0 0.0 0.00 0.00 0.00 84 1019.4
20260509134516 49 265 0.0 0.0 0.00 0.00 0.00 88 1019.3
20260509133104 48 265 0.0 0.0 0.00 0.00 0.00 91 1019.3
20260509131543 46 265 0.0 0.0 0.00 0.00 0.00 91 1019.2
20260509130023 46 265 0.0 0.0 0.00 0.00 0.00 90 1019.2
20260509124613 46 265 0.0 0.0 0.00 0.00 0.00 90 1019.3
20260509123048 46 265 0.0 0.0 0.00 0.00 0.00 90 1019.4
20260509121528 46 265 0.0 0.0 0.00 0.00 0.00 90 1019.3
20260509120014 47 265 0.0 0.0 0.00 0.00 0.00 89 1019.3
20260509114557 47 265 0.0 0.0 0.00 0.00 0.00 89 1019.3
20260509113021 47 265 0.0 0.0 0.00 0.00 0.00 89 1019.5
20260509111507 48 265 0.0 0.0 0.00 0.00 0.00 88 1019.7
20260509110056 48 265 0.0 0.0 0.00 0.00 0.00 88 1019.8
20260509104537 48 265 0.0 0.0 0.00 0.00 0.00 87 1019.8
20260509103012 49 265 0.0 0.0 0.00 0.00 0.00 87 1019.7
20260509101555 49 265 0.0 0.0 0.00 0.00 0.00 87 1019.7
20260509100036 50 265 0.0 0.0 0.00 0.00 0.00 86 1019.7
20260509094512 50 265 0.0 0.0 0.00 0.00 0.00 85 1019.9
20260509093101 51 265 0.0 0.0 0.00 0.00 0.00 84 1019.9
20260509091537 51 265 0.0 0.0 0.00 0.00 0.00 84 1020.0
20260509090013 52 265 0.0 0.0 0.00 0.00 0.00 84 1020.1
20260509084605 52 265 0.0 0.0 0.00 0.00 0.00 83 1020.3
20260509083040 53 265 0.0 0.0 0.00 0.00 0.00 82 1020.4
20260509081521 54 265 0.0 0.0 0.00 0.00 0.00 81 1020.5
20260509080139 54 265 0.0 0.0 0.00 0.00 0.00 79 1020.5
20260509074538 55 265 0.0 0.0 0.00 0.00 0.00 78 1020.5
20260509073038 56 265 0.0 0.0 0.00 0.00 0.00 77 1020.6
20260509071602 57 265 0.0 0.0 0.00 0.00 0.00 75 1020.6
20260509070047 58 265 0.0 2.0 0.00 0.00 0.00 74 1020.5
20260509064520 58 274 0.0 1.0 0.00 0.00 0.00 74 1020.6
20260509063000 58 272 0.0 0.0 0.00 0.00 0.00 73 1020.4
20260509061559 59 272 0.0 2.0 0.00 0.00 0.00 72 1020.4
20260509060038 59 276 0.0 3.0 0.00 0.00 0.00 71 1020.4
20260509054527 60 295 1.0 2.0 0.00 0.00 0.00 70 1020.4
20260509053034 60 280 1.0 4.0 0.00 0.00 0.00 69 1020.4
20260509051513 61 356 0.0 4.0 0.00 0.00 0.00 67 1020.3
20260509050034 61 300 1.0 3.0 0.00 0.00 0.00 67 1020.3
20260509044602 62 290 0.0 4.0 0.00 0.00 0.00 66 1020.1
20260509043018 62 13 2.0 6.0 0.00 0.00 0.00 65 1019.9
20260509041548 62 307 1.0 7.0 0.00 0.00 0.00 64 1019.8
20260509040037 63 276 0.0 2.0 0.00 0.00 0.00 63 1019.6
20260509034525 63 276 1.0 3.0 0.00 0.00 0.00 62 1019.4
20260509033028 64 338 0.0 3.0 0.00 0.00 0.00 61 1019.3
20260509031517 64 288 1.0 4.0 0.00 0.00 0.00 60 1019.1
20260509030100 65 311 0.0 3.0 0.00 0.00 0.00 59 1019.1
20260509024538 65 289 0.0 3.0 0.00 0.00 0.00 57 1019.0
20260509023026 66 20 2.0 5.0 0.00 0.00 0.00 56 1018.8
20260509021505 65 347 1.0 4.0 0.00 0.00 0.00 56 1018.9
20260509020052 66 265 0.0 4.0 0.00 0.00 0.00 56 1018.9
20260509014529 66 291 1.0 4.0 0.00 0.00 0.00 55 1018.9
20260509013015 66 271 1.0 4.0 0.00 0.00 0.00 54 1018.9
20260509011553 66 275 3.0 7.0 0.00 0.00 0.00 53 1019.1
20260509010032 66 300 1.0 4.0 0.00 0.00 0.00 55 1019.1
20260509004535 66 8 0.0 5.0 0.00 0.00 0.00 54 1019.2
20260509003102 66 279 0.0 5.0 0.00 0.00 0.00 56 1019.1
20260509001536 65 264 2.0 7.0 0.00 0.00 0.00 55 1019.2
20260509000022 65 213 0.0 4.0 0.00 0.00 0.00 56 1019.3
20260508234506 65 275 0.0 4.0 0.00 0.00 0.00 56 1019.3
20260508233040 65 305 2.0 5.0 0.00 0.00 0.00 55 1019.3
20260508231543 65 174 0.0 4.0 0.00 0.00 0.00 57 1019.3
20260508230035 64 262 0.0 5.0 0.00 0.00 0.00 57 1019.4
20260508224502 64 298 0.0 4.0 0.00 0.00 0.00 56 1019.5
20260508223043 65 272 1.0 6.0 0.00 0.00 0.00 56 1019.6
20260508221531 64 195 0.0 4.0 0.00 0.00 0.00 57 1019.6
20260508220015 63 191 1.0 4.0 0.00 0.00 0.00 56 1019.7
20260508214553 63 283 0.0 3.0 0.00 0.00 0.00 56 1019.7
20260508213038 62 223 1.0 4.0 0.00 0.00 0.00 58 1019.8
20260508211511 62 221 2.0 6.0 0.00 0.00 0.00 57 1019.8
20260508210004 62 210 4.0 7.0 0.00 0.00 0.00 57 1019.9
20260508204555 61 213 0.0 6.0 0.00 0.00 0.00 60 1019.8
20260508203026 61 287 0.0 3.0 0.00 0.00 0.00 59 1020.0
20260508201511 61 141 1.0 10.0 0.00 0.00 0.00 60 1020.1